Location: Goettingen
(51.5300°N, 9.9433°E)
Time: 04:19:15
(UTC+01:00)

ISS - Pass Details

Date: 30 November 2021
Orbit: 417 x 423 km, 51.6° (Epoch: 29 November)

Event Time Altitude Azimuth Distance (km) Brightness Sun altitude
Rises 17:52:47 0° 273° (W) 2,379 1.5 -14.4°
Reaches altitude 10° 17:54:53 10° 274° (W) 1,514 0.2 -14.7°
Maximum altitude 17:58:17 87° 360° (N) 430 -3.8 -15.3°
Enters shadow 17:59:38 34° 92° (E) 717 -3.1 -15.5°
